DNO284 LGKC-LGSA

Flight info

Callsign DNO284
Flight time N/A
Altitude 7000
Route SOKRI
Aircraft C208/L-SDFGR/C

Departure

Time 2026-04-28 15:25
Airport Kithira Airport (LGKC)

Arrival

Time N/A
Airport Chania International Airport (LGSA)
Time Latitude Longitude Altitude Speed Heading
2026-04-28 15:16 36.27607 23.01630 1025 ft 0 kts 210°
2026-04-28 15:21 36.27583 23.01614 1023 ft 10 kts 206°
2026-04-28 15:21 36.27486 23.01600 1025 ft 18 kts 168°
2026-04-28 15:21 36.27380 23.01648 1022 ft 15 kts 185°
2026-04-28 15:22 36.27270 23.01594 1025 ft 18 kts 207°
2026-04-28 15:22 36.27140 23.01519 1023 ft 23 kts 207°
2026-04-28 15:22 36.26988 23.01430 1025 ft 26 kts 205°
2026-04-28 15:22 36.26849 23.01329 1025 ft 19 kts 165°
2026-04-28 15:23 36.26844 23.01343 1025 ft 0 kts 31°
2026-04-28 15:24 36.26939 23.01403 1023 ft 42 kts 25°
2026-04-28 15:24 36.27342 23.01620 1088 ft 78 kts 22°
2026-04-28 15:25 36.27879 23.01898 1300 ft 86 kts 26°
2026-04-28 15:25 36.28410 23.02233 1574 ft 90 kts 26°
2026-04-28 15:25 36.29027 23.02627 1770 ft 107 kts 27°
2026-04-28 15:25 36.29718 23.03049 2098 ft 114 kts 23°
2026-04-28 15:26 36.30345 23.03685 2355 ft 121 kts 56°
2026-04-28 15:26 36.30564 23.04682 2649 ft 128 kts 89°
2026-04-28 15:26 36.30211 23.05702 2937 ft 133 kts 125°
2026-04-28 15:26 36.29537 23.06472 3201 ft 135 kts 134°
2026-04-28 15:27 36.28849 23.07260 3494 ft 133 kts 130°
2026-04-28 15:27 36.28188 23.08085 3715 ft 137 kts 131°
2026-04-28 15:27 36.27431 23.08828 3956 ft 140 kts 139°
2026-04-28 15:27 36.26884 23.09751 4208 ft 132 kts 101°
2026-04-28 15:28 36.26634 23.10847 4468 ft 131 kts 94°
2026-04-28 15:28 36.26596 23.11924 4722 ft 127 kts 82°
2026-04-28 15:28 36.26581 23.13040 4977 ft 127 kts 85°
2026-04-28 15:28 36.26546 23.14136 5225 ft 126 kts 84°
2026-04-28 15:29 36.26522 23.15207 5463 ft 126 kts 84°
2026-04-28 15:29 36.26500 23.16292 5710 ft 126 kts 84°
2026-04-28 15:29 36.26488 23.17371 5958 ft 125 kts 83°
2026-04-28 15:29 36.26489 23.18449 6206 ft 125 kts 82°
2026-04-28 15:30 36.26502 23.19516 6452 ft 123 kts 82°
2026-04-28 15:30 36.26530 23.20563 6689 ft 121 kts 81°
2026-04-28 15:30 36.26575 23.21599 6923 ft 120 kts 79°
2026-04-28 15:30 36.26638 23.22623 7156 ft 120 kts 78°
2026-04-28 15:31 36.26718 23.23651 7400 ft 119 kts 77°
2026-04-28 15:31 36.26815 23.24658 7640 ft 119 kts 75°
2026-04-28 15:31 36.26932 23.25677 7885 ft 119 kts 74°
2026-04-28 15:31 36.27068 23.26688 8132 ft 119 kts 73°
2026-04-28 15:32 36.27221 23.27695 8379 ft 119 kts 71°
2026-04-28 15:32 36.27394 23.28694 8630 ft 119 kts 70°
2026-04-28 15:32 36.27586 23.29686 8878 ft 118 kts 69°
2026-04-28 15:32 36.27798 23.30677 9085 ft 122 kts 68°
2026-04-28 15:33 36.28051 23.31737 9104 ft 137 kts 67°
2026-04-28 15:33 36.28340 23.32901 9135 ft 145 kts 67°
2026-04-28 15:33 36.28647 23.34115 9147 ft 152 kts 68°
2026-04-28 15:33 36.28969 23.35391 9149 ft 156 kts 68°
2026-04-28 15:34 36.29293 23.36686 9148 ft 159 kts 68°
2026-04-28 15:34 36.29615 23.37998 9146 ft 160 kts 68°
2026-04-28 15:34 36.29935 23.39327 9146 ft 161 kts 69°
2026-04-28 15:34 36.30250 23.40663 9144 ft 162 kts 69°
2026-04-28 15:35 36.30560 23.42008 9143 ft 163 kts 70°
2026-04-28 15:35 36.29859 23.44565 9142 ft 181 kts 142°
2026-04-28 15:35 36.28797 23.45412 9143 ft 182 kts 145°
2026-04-28 15:36 36.27731 23.46254 9138 ft 182 kts 145°
2026-04-28 15:36 36.26628 23.47031 9140 ft 183 kts 153°
2026-04-28 15:36 36.25522 23.47795 9135 ft 181 kts 143°
2026-04-28 15:36 36.24465 23.48652 9114 ft 183 kts 144°
2026-04-28 15:37 36.23401 23.49521 9084 ft 183 kts 142°
2026-04-28 15:37 36.22386 23.50458 9080 ft 181 kts 139°
2026-04-28 15:37 36.21408 23.51409 9079 ft 181 kts 139°
2026-04-28 15:37 36.20419 23.52370 9083 ft 181 kts 139°
2026-04-28 15:38 36.19429 23.53329 9085 ft 181 kts 139°
2026-04-28 15:38 36.18438 23.54285 9081 ft 181 kts 139°
2026-04-28 15:38 36.17450 23.55244 9083 ft 180 kts 137°
2026-04-28 15:38 36.16617 23.56375 9078 ft 178 kts 125°
2026-04-28 15:39 36.15584 23.57231 9068 ft 183 kts 157°
2026-04-28 15:39 36.14458 23.57933 9068 ft 181 kts 142°
2026-04-28 15:39 36.13474 23.58892 9070 ft 180 kts 137°
2026-04-28 15:39 36.12516 23.59857 9071 ft 180 kts 138°
2026-04-28 15:40 36.11532 23.60821 9075 ft 180 kts 138°
2026-04-28 15:40 36.10545 23.61781 9075 ft 180 kts 139°
2026-04-28 15:40 36.09555 23.62731 9076 ft 180 kts 139°
2026-04-28 15:40 36.08558 23.63675 9076 ft 181 kts 139°
2026-04-28 15:41 36.07559 23.64609 9073 ft 181 kts 140°
2026-04-28 15:41 36.06548 23.65542 9073 ft 181 kts 140°
2026-04-28 15:41 36.05536 23.66463 9074 ft 181 kts 141°
2026-04-28 15:41 36.04519 23.67376 9074 ft 181 kts 141°
2026-04-28 15:42 36.03511 23.68270 9074 ft 181 kts 141°
2026-04-28 15:42 36.02484 23.69168 9074 ft 181 kts 142°
2026-04-28 15:42 36.01451 23.70059 9074 ft 181 kts 142°
2026-04-28 15:42 36.00412 23.70943 9069 ft 181 kts 142°
2026-04-28 15:43 35.99425 23.71890 9067 ft 178 kts 126°
2026-04-28 15:43 35.99181 23.72306 9069 ft 176 kts 118°